Miscellaneous Local Product
Issued by NWS North Platte, NE

Home | Current Version | Previous Version | Text Only | Print | Product List | Glossary On
Versions: 1 2 3 4 5 6 7 8 9 10 11 12 13 14 15 16 17 18 19 20 21 22 23 24 25 26 27 28 29 30 31 32 33 34 35 36 37 38 39 40 41 42 43 44 45 46 47 48 49 50
000
AXUS43 KLBF 070810
MISLBF


WESTERN AND NORTH CENTRAL NEBRASKA HOURLY WEATHER ROUNDUP
NATIONAL WEATHER SERVICE NORTH PLATTE NE
200 AM CST WED DEC 07 2016

NOTE: "FAIR" INDICATES FEW OR NO CLOUDS BELOW 12,000 FEET WITH NO
SIGNIFICANT WEATHER AND/OR OBSTRUCTIONS TO VISIBILITY.

NOTE: STATIONS NOT REPORTING VARIABLES SUCH AS SKY/WEATHER OR
PRESSURE ARE PROVIDED BY RAWS AND APRS NETWORKS AND ARE NOT UNDER
NATIONAL WEATHER SERVICE QUALITY CONTROL.

...OBSERVATIONS IN AND NEAR THE EASTERN PANHANDLE OF NEBRASKA...

CITY           SKY/WX    TMP DP  RH WIND       PRES   REMARKS
PINE RIDGE     CLOUDY     2  -2  83 E3        30.15R
CHADRON        CLOUDY    10   2  69 W9        30.15R WCI  -3
ALLIANCE       CLOUDY     9   1  70 N12       30.06S WCI  -6
SIDNEY         LGT SNOW  14   7  73 NE14      30.02S WCI  -1
CRESCENT LAKE    N/A     11   3  68 NE6         N/A  WCI   2
$$

...OBSERVATIONS IN NORTHERN NEBRASKA AND FAR SOUTHERN SOUTH DAKOTA...

CITY           SKY/WX    TMP DP  RH WIND       PRES   REMARKS
WINNER         FAIR       9   1  70 NW15      30.18R WCI  -8
VALENTINE      CLOUDY     6  -2  69 NW9       30.17R WCI  -8
THEDFORD       CLOUDY    10   3  74 NW9       30.14R WCI  -4
AINSWORTH      CLOUDY     8   2  74 NW10      30.15R WCI  -6
O`NEILL        CLOUDY    11   4  74 W9G16     30.16S WCI  -2
ORD            CLOUDY    12   1  61 NW9       30.15S WCI   0
BROKEN BOW     CLOUDY    13   2  61 N12       30.14R WCI  -1
VALENTINE NWR    N/A      7  -1  67 NW13G20     N/A  WCI  -9
BUTTE            N/A      8   2  75 W13G24      N/A  WCI  -8
HALSEY           N/A      9  -1  62 NW7         N/A  WCI  -2
CHAMBERS         N/A     10  -3  55 S3          N/A
EWING            N/A     11   4  74 NW9         N/A  WCI  -2
$$

...OBSERVATIONS IN SOUTHWEST NEBRASKA AND FAR NORTHEAST COLORADO...

CITY           SKY/WX    TMP DP  RH WIND       PRES   REMARKS
WRAY           LGT SNOW  23  21  93 NE7       30.01R VSB 1   WCI  15
HOLYOKE        FAIR      23  12  63 NE10      30.04R WCI  12
IMPERIAL       CLOUDY    21  16  81 NE7       30.05R WCI  12
OGALLALA       CLOUDY    17   5  58 NE14      30.09F WCI   3
NORTH PLATTE   CLOUDY    14   2  58 CALM      30.15R
MCCOOK         CLOUDY    22   8  55 NE10      30.08S WCI  11
LEXINGTON      CLOUDY    19   6  59 N10       30.14R WCI   7
STAPLETON        N/A     10   2  69 CALM        N/A
GOTHENBURG       N/A     15   3  58 N8          N/A  WCI   4
CALLAWAY         N/A     12   4  69 N12         N/A  WCI  -2
$$

...OBSERVATIONS IN CENTRAL LINCOLN COUNTY AREA...

CITY           SKY/WX    TMP DP  RH WIND       PRES   REMARKS
N.P. AIRPORT   CLOUDY    14   2  58 CALM      30.15R
N.P. DOWNTOWN    N/A     13   3  63 N5          N/A  WCI   5
N.P. SOUTHEAST   N/A     13   2  62 N3          N/A
N.P. HILLCREST   N/A     13   4  65 NE14        N/A  WCI  -2
$$

...SOME OBSERVATIONS FROM AROUND THE REGION...

CITY           SKY/WX    TMP DP  RH WIND       PRES   REMARKS
LARAMIE        CLOUDY     9   1  70 SE14      29.76R WCI  -7
CHEYENNE       LGT SNOW   7   2  80 N10       29.89R WCI  -8
DENVER         LGT SNOW  17  13  84 E8        29.90R FOG     WCI   7
AKRON          LGT SNOW  18  14  84 E10       29.96R VSB 1   WCI   6
SCOTTSBLUFF    CLOUDY    13  -1  54 N13       30.07R WCI  -2
RAPID CITY     CLOUDY     3  -4  72 NW12      30.14R WCI -13
BISMARCK       CLOUDY     4  -1  80 W21G26    30.10R WCI -17
PIERRE         CLEAR      8   1  73 NW24G32   30.15R WCI -13
SIOUX FALLS    CLEAR     11   4  73 W24G32    30.08R WCI  -9
OMAHA          CLOUDY    21   9  59 NW13      30.19R WCI   9
GRAND ISLAND   CLOUDY    18   7  62 N9        30.15F WCI   7
KANSAS CITY    CLOUDY    30  14  51 N7        30.18R WCI  23
WICHITA        CLOUDY    34  17  50 NE6       30.12F WCI  29
OKLAHOMA CITY  PTCLDY    32  22  66 NE6       30.09S WCI  26
DALLAS         PTCLDY    40  32  73 N7        30.05S
AMARILLO       CLOUDY    24  16  71 SE12      29.95F WCI  13
DODGE CITY     CLEAR     20  13  74 E7        30.03F WCI  11
HAYS           CLOUDY    26  20  77 E6        30.09F WCI  19
GOODLAND       CLOUDY    23   3  42 E6        29.95F WCI  16
$$




USA.gov is the U.S. government's official web portal to all federal, state and local government web resources and services.